TJS-3

Last updated on Tue Sep 22 2026 00:03:14 GMT+0000 (Coordinated Universal Time)

1 43874U 18110A 26264.63272080 .00000024 00000+0 00000+0 0 9999 2 43874 2.7856 79.2356 0004180 139.0315 182.0200 1.00453880 28386
UTC large
Height (km)
Speed (km/s)
/
Latitude / Longitude
Inclination (degrees)
Orbital Period (minutes)
Azimuth
Elevation
Range (km)
Doppler Factor

Next 0 passes for location: London (51.5072 / 0.1276)

No passes found over London.
TJS-3